Weather History for KXNA - November, 2012

Change the Weather History Date:

Saturday, November 10, 2012

  Actual Average Record
Temperature  
Mean Temperature 66 °F -  
Max Temperature 73 °F - - ()
Min Temperature 59 °F - - ()
Cooling Degree Days 1    
Growing Degree Days 16 (Base 50)    
Moisture  
Dew Point 54 °F    
Average Humidity 66    
Maximum Humidity 81    
Minimum Humidity 47    
Precipitation  
Precipitation 0.00 in - - ()
Sea Level Pressure  
Sea Level Pressure 29.90 in    
Wind  
Wind Speed 17 mph (South)    
Max Wind Speed 23 mph    
Max Gust Speed 33 mph    
Visibility 10 miles    
Events      
T = Trace of Precipitation, MM = Missing Value Source: NWS Daily Summary

Daily Weather History Graph

Daily Weather History Graph

Search for Another Location

Airport or City:

Trip Planner

Search our weather history database for the weather conditions in past years. The results will help you decide how hot, cold, wet, or windy it might be!

Date:

Astronomy

Nov. 10, 2012 Rise Set
Actual Time 6:49 AM CST 5:12 PM CST
Civil Twilight 6:22 AM CST 5:39 PM CST
Nautical Twilight 5:51 AM CST 6:10 PM CST
Astronomical Twilight 5:21 AM CST 6:40 PM CST
Moon 3:01 AM CST (11/10) 2:54 PM CST (11/10)
Length of Visible Light 11h 16m
Length of Day
10h 22m
Waning Crescent, 14% of the Moon is Illuminated
Nov 10
Waning Crescent
Nov 13
New
Nov 20
First Quarter
Nov 28
Full
Dec 6
Last Quarter

Hourly Weather History & Observations

Time (CST) Temp. Dew Point Humidity Pressure Visibility Wind Dir Wind Speed Gust Speed Precip Events Conditions
12:53 AM 62.1 °F 53.1 °F 72% 29.93 in 10.0 mi South 13.8 mph - N/A   Clear
1:53 AM 62.1 °F 53.1 °F 72% 29.93 in 10.0 mi South 13.8 mph - N/A   Clear
2:53 AM 62.1 °F 53.1 °F 72% 29.93 in 10.0 mi South 15.0 mph - N/A   Clear
3:53 AM 61.0 °F 53.1 °F 75% 29.93 in 10.0 mi South 9.2 mph 17.3 mph N/A   Clear
4:53 AM 61.0 °F 53.1 °F 75% 29.95 in 10.0 mi South 11.5 mph - N/A   Clear
5:53 AM 59.0 °F 53.1 °F 81% 29.96 in 10.0 mi South 10.4 mph - N/A   Clear
6:53 AM 59.0 °F 53.1 °F 81% 29.98 in 10.0 mi South 12.7 mph - N/A   Clear
7:53 AM 61.0 °F 53.1 °F 75% 29.98 in 10.0 mi South 23.0 mph 29.9 mph N/A   Clear
8:53 AM 63.0 °F 55.0 °F 75% 29.99 in 10.0 mi South 23.0 mph 29.9 mph N/A   Clear
9:53 AM 66.0 °F 55.0 °F 68% 29.97 in 10.0 mi South 23.0 mph 33.4 mph N/A   Clear
10:53 AM 68.0 °F 55.0 °F 63% 29.95 in 10.0 mi South 20.7 mph 28.8 mph N/A   Clear
11:53 AM 70.0 °F 55.0 °F 59% 29.93 in 10.0 mi South 20.7 mph 32.2 mph N/A   Clear
12:53 PM 72.0 °F 54.0 °F 53% 29.88 in 10.0 mi South 23.0 mph 26.5 mph N/A   Clear
1:53 PM 73.9 °F 54.0 °F 50% 29.86 in 10.0 mi SSE 21.9 mph 29.9 mph N/A   Clear
2:53 PM 72.0 °F 54.0 °F 53% 29.86 in 10.0 mi South 18.4 mph 26.5 mph N/A   Clear
3:53 PM 71.1 °F 50.0 °F 47% 29.83 in 10.0 mi South 18.4 mph 29.9 mph N/A   Clear
4:53 PM 69.1 °F 51.1 °F 53% 29.84 in 10.0 mi South 18.4 mph - N/A   Clear
5:53 PM 66.9 °F 53.1 °F 61% 29.84 in 10.0 mi SSE 19.6 mph - N/A   Clear
6:53 PM 66.9 °F 53.1 °F 61% 29.87 in 10.0 mi South 17.3 mph 24.2 mph N/A   Clear
7:53 PM 66.0 °F 54.0 °F 65% 29.86 in 10.0 mi South 20.7 mph 25.3 mph N/A   Clear
8:53 PM 66.0 °F 55.0 °F 68% 29.84 in 10.0 mi South 21.9 mph 32.2 mph N/A   Clear
10:53 PM 64.9 °F 55.9 °F 73% 29.83 in 10.0 mi South 19.6 mph 28.8 mph N/A   Clear
11:53 PM 64.9 °F 55.9 °F 73% 29.81 in 10.0 mi South 23.0 mph 31.1 mph N/A   Clear